This is the latest recevied weather packets stored in our database for station/object N7IGG. If no packets are shown the sender has not sent any weather packets the latest 10 day(s).
| Time | Temp. | Humidity | Pressure | Rain* | Wind** | Luminosity | Snow |
|---|---|---|---|---|---|---|---|
| 1777821854 | 14.44° C | 82% | 1014.5 hPa | 0 mm | - | 39 W/m² | - |
| 1777821552 | 13.89° C | 83% | 1014.3 hPa | 0 mm | - | 81 W/m² | - |
| 1777821250 | 13.89° C | 83% | 1014.4 hPa | 0 mm | - | 37 W/m² | - |
| 1777820946 | 13.89° C | 84% | 1014.4 hPa | 0 mm | - | 48 W/m² | - |
| 1777820643 | 13.89° C | 84% | 1014.3 hPa | 0 mm | - | 29 W/m² | - |
| 1777820339 | 13.33° C | 85% | 1014.2 hPa | 0 mm | - | 27 W/m² | - |
| 1777820037 | 13.33° C | 86% | 1014.4 hPa | 0 mm | - | 26 W/m² | - |
| 1777819733 | 12.78° C | 86% | 1014.6 hPa | 0 mm | - | 26 W/m² | - |
| 1777819432 | 12.78° C | 86% | 1014.3 hPa | 0 mm | - | 24 W/m² | - |
| 1777819129 | 12.78° C | 86% | 1014.4 hPa | 0 mm | - | 24 W/m² | - |
| 1777818825 | 12.78° C | 86% | 1014.4 hPa | 0 mm | - | 23 W/m² | - |
| 1777818522 | 12.78° C | 86% | 1014.4 hPa | 0 mm | - | 23 W/m² | - |
| 1777818219 | 12.78° C | 85% | 1014.5 hPa | 0 mm | - | 22 W/m² | - |
| 1777817915 | 12.22° C | 84% | 1014.3 hPa | 0 mm | - | 22 W/m² | - |
| 1777817613 | 12.22° C | 84% | 1014.3 hPa | 0 mm | - | 21 W/m² | - |
| 1777817309 | 12.78° C | 83% | 1014.2 hPa | 0 mm | - | 21 W/m² | - |
| 1777817007 | 12.78° C | 81% | 1014.3 hPa | 0 mm | - | 18 W/m² | - |
| 1777816703 | 13.33° C | 79% | 1014.3 hPa | 0 mm | - | 17 W/m² | - |
| 1777816400 | 15° C | 77% | 1014 hPa | 0 mm | - | 18 W/m² | - |
| 1777816098 | 15° C | 77% | 1014 hPa | 0 mm | - | 16 W/m² | - |
| 1777815795 | 14.44° C | 78% | 1014 hPa | 0 mm | - | 15 W/m² | - |
| 1777815492 | 14.44° C | 78% | 1014.1 hPa | 0 mm | - | 13 W/m² | - |
| 1777815190 | 14.44° C | 80% | 1014 hPa | 0 mm | - | 12 W/m² | - |
| 1777814886 | 13.89° C | 81% | 1014.2 hPa | 0 mm | - | 10 W/m² | - |
| 1777814583 | 13.89° C | 82% | 1014 hPa | 0 mm | - | 9 W/m² | - |
* Rain latest hour (hover to see other rain measurements)
** Current wind speed in m/s (hover to see current wind gust speed)